| time (UTC) | temp F | wind direction | speed knots | gust knots | rain 1hr in | rain 24hr in | rain mn in | humidity % | barometer mb |
| 20260509041012 | 35 | 360 | 3.5 | 0.0 | 0.00 | 0.00 | 0.00 | 85 | 1011.8 |
| 20260509040514 | 35 | 360 | 3.5 | 0.0 | 0.00 | 0.00 | 0.00 | 85 | 1011.8 |
| 20260509040010 | 35 | 360 | 3.5 | 0.0 | 0.00 | 0.00 | 0.00 | 85 | 1011.8 |
| 20260509035509 | 35 | 360 | 4.3 | 0.0 | 0.00 | 0.00 | 0.00 | 85 | 1011.7 |
| 20260509035009 | 35 | 360 | 3.5 | 0.0 | 0.00 | 0.00 | 0.00 | 84 | 1011.7 |
| 20260509034509 | 35 | 360 | 3.5 | 0.0 | 0.00 | 0.00 | 0.00 | 84 | 1011.7 |
| 20260509034012 | 36 | 360 | 4.3 | 0.0 | 0.00 | 0.00 | 0.00 | 84 | 1011.6 |
| 20260509033508 | 36 | 360 | 4.3 | 0.0 | 0.00 | 0.00 | 0.00 | 83 | 1011.6 |
| 20260509033009 | 36 | 139 | 4.3 | 0.0 | 0.00 | 0.00 | 0.00 | 83 | 1011.5 |
| 20260509032508 | 36 | 140 | 4.3 | 0.0 | 0.00 | 0.00 | 0.00 | 83 | 1011.5 |
| 20260509032007 | 36 | 137 | 4.3 | 0.0 | 0.00 | 0.00 | 0.00 | 83 | 1011.5 |
| 20260509031521 | 36 | 138 | 4.3 | 0.0 | 0.00 | 0.00 | 0.00 | 82 | 1011.5 |
| 20260509031008 | 37 | 137 | 4.3 | 0.0 | 0.00 | 0.00 | 0.00 | 82 | 1011.5 |
| 20260509030508 | 37 | 138 | 4.3 | 0.0 | 0.00 | 0.00 | 0.00 | 82 | 1011.6 |
| 20260509030009 | 37 | 134 | 5.2 | 0.0 | 0.00 | 0.00 | 0.00 | 82 | 1011.6 |
| 20260509025507 | 37 | 136 | 5.2 | 0.0 | 0.00 | 0.00 | 0.00 | 81 | 1011.7 |
| 20260509025006 | 37 | 136 | 4.3 | 0.0 | 0.00 | 0.00 | 0.00 | 80 | 1011.7 |
| 20260509024506 | 38 | 138 | 4.3 | 0.0 | 0.00 | 0.00 | 0.00 | 79 | 1011.6 |
| 20260509024006 | 38 | 142 | 4.3 | 0.0 | 0.00 | 0.00 | 0.00 | 78 | 1011.5 |
| 20260509023506 | 38 | 142 | 4.3 | 0.0 | 0.00 | 0.00 | 0.00 | 79 | 1011.5 |
| 20260509023005 | 39 | 142 | 4.3 | 0.0 | 0.00 | 0.00 | 0.00 | 78 | 1011.5 |
| 20260509022504 | 39 | 142 | 3.5 | 0.0 | 0.00 | 0.00 | 0.00 | 77 | 1011.5 |
| 20260509022005 | 39 | 139 | 3.5 | 0.0 | 0.00 | 0.00 | 0.00 | 77 | 1011.5 |
| 20260509021506 | 40 | 136 | 3.5 | 0.0 | 0.00 | 0.00 | 0.00 | 76 | 1011.4 |
| 20260509021004 | 40 | 136 | 3.5 | 0.0 | 0.00 | 0.00 | 0.00 | 74 | 1011.3 |
| 20260509020503 | 41 | 139 | 2.6 | 0.0 | 0.00 | 0.00 | 0.00 | 75 | 1011.4 |
| 20260509020003 | 41 | 125 | 2.6 | 0.0 | 0.00 | 0.00 | 0.00 | 73 | 1011.4 |
| 20260509015505 | 41 | 142 | 3.5 | 0.0 | 0.00 | 0.00 | 0.00 | 72 | 1011.4 |
| 20260509015003 | 42 | 147 | 3.5 | 0.0 | 0.00 | 0.00 | 0.00 | 71 | 1011.3 |
| 20260509014505 | 42 | 150 | 2.6 | 0.0 | 0.00 | 0.00 | 0.00 | 71 | 1011.3 |
| 20260509014102 | 43 | 197 | 1.7 | 0.0 | 0.00 | 0.00 | 0.00 | 71 | 1011.2 |
| 20260509013600 | 43 | 214 | 0.9 | 0.0 | 0.00 | 0.00 | 0.00 | 71 | 1011.1 |
| 20260509013103 | 44 | 214 | 0.0 | 0.0 | 0.00 | 0.00 | 0.00 | 70 | 1011.1 |
| 20260509012600 | 44 | 214 | 0.9 | 0.0 | 0.00 | 0.00 | 0.00 | 69 | 1011.1 |
| 20260509012059 | 45 | 214 | 0.9 | 0.0 | 0.00 | 0.00 | 0.00 | 68 | 1011.0 |
| 20260509011559 | 46 | 214 | 0.9 | 0.0 | 0.00 | 0.00 | 0.00 | 68 | 1011.0 |
| 20260509011058 | 46 | 217 | 1.7 | 0.0 | 0.00 | 0.00 | 0.00 | 67 | 1010.8 |
| 20260509010557 | 47 | 225 | 4.3 | 0.0 | 0.00 | 0.00 | 0.00 | 65 | 1010.6 |
| 20260509005556 | 47 | 245 | 8.7 | 0.0 | 0.00 | 0.00 | 0.00 | 66 | 1010.4 |
| 20260509005057 | 48 | 256 | 7.8 | 0.0 | 0.00 | 0.00 | 0.00 | 64 | 1010.3 |
| 20260509004608 | 48 | 271 | 8.7 | 0.0 | 0.00 | 0.00 | 0.00 | 64 | 1010.2 |
| 20260509004058 | 48 | 261 | 9.6 | 0.0 | 0.00 | 0.00 | 0.00 | 63 | 1010.2 |
| 20260509003559 | 48 | 256 | 10.4 | 0.0 | 0.00 | 0.00 | 0.00 | 62 | 1010.1 |
| 20260509003102 | 48 | 265 | 11.3 | 0.0 | 0.00 | 0.00 | 0.00 | 63 | 1010.1 |
| 20260509002555 | 48 | 259 | 11.3 | 0.0 | 0.00 | 0.00 | 0.00 | 63 | 1010.1 |
| 20260509002056 | 49 | 265 | 12.2 | 0.0 | 0.00 | 0.00 | 0.00 | 63 | 1010.0 |
| 20260509001555 | 49 | 267 | 12.2 | 0.0 | 0.00 | 0.00 | 0.00 | 62 | 1009.9 |
| 20260509001055 | 49 | 269 | 12.2 | 0.0 | 0.00 | 0.00 | 0.00 | 64 | 1009.8 |
| 20260509000554 | 49 | 263 | 11.3 | 0.0 | 0.00 | 0.00 | 0.00 | 63 | 1009.8 |
| 20260509000054 | 49 | 271 | 11.3 | 0.0 | 0.00 | 0.00 | 0.00 | 60 | 1009.9 |
| 20260508235555 | 49 | 251 | 11.3 | 0.0 | 0.00 | 0.00 | 0.00 | 60 | 1009.8 |
| 20260508235056 | 50 | 261 | 10.4 | 0.0 | 0.00 | 0.00 | 0.00 | 63 | 1009.8 |
| 20260508234557 | 50 | 258 | 9.6 | 0.0 | 0.00 | 0.00 | 0.00 | 60 | 1009.7 |
| 20260508234055 | 50 | 266 | 9.6 | 0.0 | 0.00 | 0.00 | 0.00 | 61 | 1009.8 |
| 20260508233555 | 50 | 268 | 10.4 | 0.0 | 0.00 | 0.00 | 0.00 | 63 | 1009.8 |
| 20260508233057 | 50 | 274 | 11.3 | 0.0 | 0.00 | 0.00 | 0.00 | 61 | 1009.8 |
| 20260508232553 | 50 | 271 | 13.0 | 0.0 | 0.00 | 0.00 | 0.00 | 61 | 1009.8 |
| 20260508232057 | 50 | 277 | 13.0 | 0.0 | 0.00 | 0.00 | 0.00 | 61 | 1009.6 |
| 20260508231558 | 50 | 275 | 11.3 | 0.0 | 0.00 | 0.00 | 0.00 | 61 | 1009.6 |
| 20260508231053 | 50 | 294 | 8.7 | 0.0 | 0.00 | 0.00 | 0.00 | 60 | 1009.6 |
| 20260508230552 | 50 | 277 | 8.7 | 0.0 | 0.00 | 0.00 | 0.00 | 61 | 1009.6 |
| 20260508230124 | 50 | 283 | 10.4 | 0.0 | 0.00 | 0.00 | 0.00 | 59 | 1009.6 |
| 20260508225553 | 50 | 278 | 11.3 | 0.0 | 0.00 | 0.00 | 0.00 | 62 | 1009.5 |
| 20260508225055 | 50 | 280 | 13.0 | 0.0 | 0.00 | 0.00 | 0.00 | 63 | 1009.6 |
| 20260508224601 | 50 | 290 | 14.8 | 0.0 | 0.00 | 0.00 | 0.00 | 62 | 1009.5 |
| 20260508224052 | 51 | 275 | 13.9 | 0.0 | 0.00 | 0.00 | 0.00 | 60 | 1009.5 |
| 20260508223552 | 51 | 285 | 12.2 | 0.0 | 0.00 | 0.00 | 0.00 | 62 | 1009.4 |
| 20260508223052 | 51 | 290 | 12.2 | 0.0 | 0.00 | 0.00 | 0.00 | 60 | 1009.5 |
| 20260508222552 | 51 | 256 | 12.2 | 0.0 | 0.00 | 0.00 | 0.00 | 63 | 1009.4 |
| 20260508222052 | 51 | 269 | 11.3 | 0.0 | 0.00 | 0.00 | 0.00 | 62 | 1009.4 |
| 20260508221552 | 51 | 267 | 10.4 | 0.0 | 0.00 | 0.00 | 0.00 | 62 | 1009.3 |
| 20260508221051 | 51 | 263 | 10.4 | 0.0 | 0.00 | 0.00 | 0.00 | 61 | 1009.4 |
| 20260508220552 | 51 | 253 | 10.4 | 0.0 | 0.00 | 0.00 | 0.00 | 61 | 1009.4 |
| 20260508220117 | 51 | 258 | 11.3 | 0.0 | 0.00 | 0.00 | 0.00 | 64 | 1009.4 |
| 20260508215551 | 51 | 265 | 12.2 | 0.0 | 0.00 | 0.00 | 0.00 | 64 | 1009.4 |
| 20260508215051 | 51 | 273 | 12.2 | 0.0 | 0.00 | 0.00 | 0.00 | 63 | 1009.4 |
| 20260508214556 | 52 | 259 | 12.2 | 0.0 | 0.00 | 0.00 | 0.00 | 61 | 1009.4 |
| 20260508214050 | 52 | 271 | 9.6 | 0.0 | 0.00 | 0.00 | 0.00 | 62 | 1009.4 |
| 20260508213550 | 52 | 263 | 7.8 | 0.0 | 0.00 | 0.00 | 0.00 | 62 | 1009.4 |
| 20260508213054 | 52 | 246 | 9.6 | 0.0 | 0.00 | 0.00 | 0.00 | 63 | 1009.6 |
| 20260508212550 | 51 | 244 | 10.4 | 0.0 | 0.00 | 0.00 | 0.00 | 64 | 1009.6 |
| 20260508212050 | 51 | 251 | 11.3 | 0.0 | 0.00 | 0.00 | 0.00 | 66 | 1009.5 |
| 20260508211552 | 50 | 262 | 11.3 | 0.0 | 0.00 | 0.00 | 0.00 | 66 | 1009.5 |
| 20260508211050 | 50 | 286 | 11.3 | 0.0 | 0.00 | 0.00 | 0.00 | 65 | 1009.6 |
| 20260508210550 | 50 | 280 | 12.2 | 0.0 | 0.00 | 0.00 | 0.00 | 68 | 1009.5 |
| 20260508210050 | 50 | 290 | 13.0 | 0.0 | 0.00 | 0.00 | 0.00 | 68 | 1009.5 |
| 20260508205549 | 49 | 252 | 13.9 | 0.0 | 0.00 | 0.00 | 0.00 | 67 | 1009.5 |
| 20260508205049 | 49 | 283 | 16.5 | 0.0 | 0.00 | 0.00 | 0.00 | 66 | 1009.6 |
| 20260508204600 | 49 | 292 | 18.2 | 0.0 | 0.00 | 0.00 | 0.00 | 68 | 1009.5 |
| 20260508204051 | 49 | 281 | 15.6 | 0.0 | 0.00 | 0.00 | 0.00 | 66 | 1009.5 |
| 20260508203548 | 48 | 294 | 10.4 | 0.0 | 0.00 | 0.00 | 0.00 | 70 | 1009.4 |
| 20260508203049 | 48 | 289 | 4.3 | 0.0 | 0.00 | 0.00 | 0.00 | 73 | 1009.4 |
| 20260508202548 | 47 | 330 | 2.6 | 0.0 | 0.00 | 0.00 | 0.00 | 75 | 1009.3 |
| 20260508202050 | 47 | 31 | 1.7 | 0.0 | 0.00 | 0.00 | 0.00 | 70 | 1009.3 |
| 20260508201549 | 47 | 30 | 3.5 | 0.0 | 0.00 | 0.00 | 0.00 | 73 | 1009.3 |
| 20260508201048 | 47 | 17 | 4.3 | 0.0 | 0.00 | 0.00 | 0.00 | 73 | 1009.3 |
| 20260508200548 | 47 | 28 | 5.2 | 0.0 | 0.00 | 0.00 | 0.00 | 75 | 1009.3 |
| 20260508200050 | 46 | 13 | 7.8 | 0.0 | 0.00 | 0.00 | 0.00 | 77 | 1009.4 |
| 20260508195547 | 46 | 15 | 9.6 | 0.0 | 0.00 | 0.00 | 0.00 | 76 | 1009.4 |
| 20260508195047 | 46 | 360 | 10.4 | 0.0 | 0.00 | 0.00 | 0.00 | 77 | 1009.6 |
| 20260508194547 | 46 | 355 | 11.3 | 0.0 | 0.00 | 0.00 | 0.00 | 76 | 1009.7 |
| 20260508194048 | 47 | 360 | 12.2 | 0.0 | 0.00 | 0.00 | 0.00 | 74 | 1009.8 |
| 20260508193547 | 49 | 355 | 12.2 | 0.0 | 0.00 | 0.00 | 0.00 | 68 | 1009.7 |
| 20260508193052 | 53 | 345 | 13.0 | 0.0 | 0.00 | 0.00 | 0.00 | 57 | 1009.7 |
| 20260508192549 | 55 | 248 | 14.8 | 0.0 | 0.00 | 0.00 | 0.00 | 56 | 1009.3 |
| 20260508192045 | 56 | 252 | 14.8 | 0.0 | 0.00 | 0.00 | 0.00 | 58 | 1009.1 |
| 20260508191547 | 56 | 223 | 15.6 | 0.0 | 0.00 | 0.00 | 0.00 | 58 | 1009.2 |
| 20260508191045 | 56 | 193 | 17.4 | 0.0 | 0.00 | 0.00 | 0.00 | 59 | 1009.1 |
| 20260508190545 | 56 | 207 | 16.5 | 0.0 | 0.00 | 0.00 | 0.00 | 58 | 1009.1 |
| 20260508190058 | 56 | 217 | 16.5 | 0.0 | 0.00 | 0.00 | 0.00 | 58 | 1009.0 |
| 20260508185544 | 56 | 255 | 16.5 | 0.0 | 0.00 | 0.00 | 0.00 | 65 | 1008.9 |
| 20260508185046 | 56 | 261 | 16.5 | 0.0 | 0.00 | 0.00 | 0.00 | 62 | 1008.9 |
| 20260508184549 | 56 | 227 | 15.6 | 0.0 | 0.00 | 0.00 | 0.00 | 59 | 1008.9 |
| 20260508184045 | 55 | 236 | 14.8 | 0.0 | 0.00 | 0.00 | 0.00 | 63 | 1009.0 |
| 20260508183542 | 55 | 236 | 13.9 | 0.0 | 0.00 | 0.00 | 0.00 | 66 | 1009.1 |
| 20260508183044 | 55 | 236 | 13.9 | 0.0 | 0.00 | 0.00 | 0.00 | 63 | 1009.2 |
| 20260508182539 | 54 | 246 | 13.0 | 0.0 | 0.00 | 0.00 | 0.00 | 70 | 1009.2 |
| 20260508182039 | 54 | 220 | 12.2 | 0.0 | 0.00 | 0.00 | 0.00 | 66 | 1009.2 |
| 20260508181553 | 53 | 242 | 14.8 | 0.0 | 0.00 | 0.00 | 0.00 | 68 | 1009.3 |
| 20260508181037 | 53 | 242 | 14.8 | 0.0 | 0.00 | 0.00 | 0.00 | 69 | 1009.3 |
| 20260508180538 | 53 | 246 | 13.9 | 0.0 | 0.00 | 0.00 | 0.00 | 64 | 1009.3 |
| 20260508180038 | 53 | 231 | 13.9 | 0.0 | 0.00 | 0.00 | 0.00 | 66 | 1009.3 |
| 20260508175536 | 52 | 252 | 13.9 | 0.0 | 0.00 | 0.00 | 0.00 | 66 | 1009.3 |
| 20260508175038 | 52 | 253 | 14.8 | 0.0 | 0.00 | 0.00 | 0.00 | 67 | 1009.3 |
| 20260508174545 | 52 | 248 | 13.0 | 0.0 | 0.00 | 0.00 | 0.00 | 67 | 1009.4 |
| 20260508174035 | 52 | 238 | 13.9 | 0.0 | 0.00 | 0.00 | 0.00 | 66 | 1009.5 |
| 20260508173535 | 52 | 246 | 14.8 | 0.0 | 0.00 | 0.00 | 0.00 | 64 | 1009.6 |
| 20260508173035 | 52 | 247 | 13.9 | 0.0 | 0.00 | 0.00 | 0.00 | 64 | 1009.6 |
| 20260508172535 | 52 | 254 | 11.3 | 0.0 | 0.00 | 0.00 | 0.00 | 65 | 1009.7 |
| 20260508172035 | 52 | 217 | 11.3 | 0.0 | 0.00 | 0.00 | 0.00 | 62 | 1009.6 |
| 20260508171535 | 52 | 221 | 12.2 | 0.0 | 0.00 | 0.00 | 0.00 | 61 | 1009.8 |
| 20260508171037 | 52 | 251 | 12.2 | 0.0 | 0.00 | 0.00 | 0.00 | 63 | 1009.8 |
| 20260508170534 | 52 | 245 | 13.9 | 0.0 | 0.00 | 0.00 | 0.00 | 60 | 1009.9 |
| 20260508170035 | 52 | 241 | 15.6 | 0.0 | 0.00 | 0.00 | 0.00 | 62 | 1009.9 |
| 20260508165537 | 52 | 247 | 15.6 | 0.0 | 0.00 | 0.00 | 0.00 | 61 | 1009.9 |
| 20260508165034 | 53 | 232 | 12.2 | 0.0 | 0.00 | 0.00 | 0.00 | 60 | 1010.0 |
| 20260508164533 | 53 | 256 | 8.7 | 0.0 | 0.00 | 0.00 | 0.00 | 57 | 1010.0 |
| 20260508164034 | 53 | 248 | 9.6 | 0.0 | 0.00 | 0.00 | 0.00 | 58 | 1010.0 |
| 20260508163535 | 53 | 238 | 13.0 | 0.0 | 0.00 | 0.00 | 0.00 | 62 | 1009.9 |
| 20260508163038 | 53 | 259 | 16.5 | 0.0 | 0.00 | 0.00 | 0.00 | 64 | 1010.0 |
| 20260508162531 | 52 | 224 | 15.6 | 0.0 | 0.00 | 0.00 | 0.00 | 65 | 1009.9 |
| 20260508162033 | 52 | 257 | 16.5 | 0.0 | 0.00 | 0.00 | 0.00 | 63 | 1009.8 |
| 20260508161535 | 52 | 251 | 16.5 | 0.0 | 0.00 | 0.00 | 0.00 | 58 | 1009.8 |
| 20260508161031 | 53 | 246 | 13.9 | 0.0 | 0.00 | 0.00 | 0.00 | 59 | 1009.9 |
| 20260508160529 | 52 | 233 | 13.9 | 0.0 | 0.00 | 0.00 | 0.00 | 61 | 1009.9 |
| 20260508160031 | 52 | 249 | 15.6 | 0.0 | 0.00 | 0.00 | 0.00 | 66 | 1009.9 |
| 20260508155532 | 51 | 240 | 14.8 | 0.0 | 0.00 | 0.00 | 0.00 | 65 | 1009.9 |
| 20260508155031 | 50 | 253 | 12.2 | 0.0 | 0.00 | 0.00 | 0.00 | 65 | 1009.8 |
| 20260508154528 | 50 | 263 | 12.2 | 0.0 | 0.00 | 0.00 | 0.00 | 61 | 1009.9 |
| 20260508154031 | 49 | 290 | 11.3 | 0.0 | 0.00 | 0.00 | 0.00 | 59 | 1010.0 |
| 20260508153531 | 49 | 289 | 10.4 | 0.0 | 0.00 | 0.00 | 0.00 | 62 | 1010.0 |
| 20260508153027 | 49 | 277 | 13.0 | 0.0 | 0.00 | 0.00 | 0.00 | 64 | 1010.1 |
| 20260508152528 | 49 | 274 | 13.9 | 0.0 | 0.00 | 0.00 | 0.00 | 60 | 1010.0 |
| 20260508152027 | 49 | 267 | 14.8 | 0.0 | 0.00 | 0.00 | 0.00 | 63 | 1009.8 |
| 20260508151528 | 50 | 264 | 14.8 | 0.0 | 0.00 | 0.00 | 0.00 | 63 | 1009.8 |
| 20260508151027 | 50 | 262 | 13.0 | 0.0 | 0.00 | 0.00 | 0.00 | 58 | 1009.8 |
| 20260508150526 | 50 | 279 | 13.0 | 0.0 | 0.00 | 0.00 | 0.00 | 61 | 1009.8 |
| 20260508150032 | 51 | 269 | 12.2 | 0.0 | 0.00 | 0.00 | 0.00 | 62 | 1009.7 |
| 20260508145527 | 51 | 263 | 11.3 | 0.0 | 0.00 | 0.00 | 0.00 | 62 | 1009.8 |
| 20260508145027 | 51 | 263 | 10.4 | 0.0 | 0.00 | 0.00 | 0.00 | 60 | 1009.8 |
| 20260508144526 | 51 | 280 | 11.3 | 0.0 | 0.00 | 0.00 | 0.00 | 58 | 1009.9 |
| 20260508144026 | 51 | 243 | 10.4 | 0.0 | 0.00 | 0.00 | 0.00 | 62 | 1009.8 |
| 20260508143522 | 50 | 248 | 8.7 | 0.0 | 0.00 | 0.00 | 0.00 | 66 | 1009.8 |
| 20260508143025 | 50 | 248 | 10.4 | 0.0 | 0.00 | 0.00 | 0.00 | 62 | 1009.7 |
| 20260508142523 | 49 | 243 | 10.4 | 0.0 | 0.00 | 0.00 | 0.00 | 66 | 1009.7 |
| 20260508142024 | 49 | 277 | 7.0 | 0.0 | 0.00 | 0.00 | 0.00 | 59 | 1009.7 |
| 20260508141519 | 49 | 267 | 7.0 | 0.0 | 0.00 | 0.00 | 0.00 | 63 | 1009.7 |
| 20260508141018 | 48 | 232 | 7.8 | 0.0 | 0.00 | 0.00 | 0.00 | 64 | 1009.7 |
| 20260508140516 | 48 | 242 | 7.0 | 0.0 | 0.00 | 0.00 | 0.00 | 64 | 1009.7 |
| 20260508140025 | 48 | 244 | 6.1 | 0.0 | 0.00 | 0.00 | 0.00 | 61 | 1009.6 |
| 20260508135516 | 48 | 293 | 5.2 | 0.0 | 0.00 | 0.00 | 0.00 | 61 | 1009.7 |
| 20260508135016 | 48 | 279 | 6.1 | 0.0 | 0.00 | 0.00 | 0.00 | 62 | 1009.7 |
| 20260508134526 | 48 | 252 | 8.7 | 0.0 | 0.00 | 0.00 | 0.00 | 66 | 1009.8 |
| 20260508134015 | 48 | 259 | 10.4 | 0.0 | 0.00 | 0.00 | 0.00 | 68 | 1009.9 |
| 20260508133513 | 47 | 279 | 11.3 | 0.0 | 0.00 | 0.00 | 0.00 | 64 | 1009.8 |
| 20260508133013 | 47 | 265 | 10.4 | 0.0 | 0.00 | 0.00 | 0.00 | 64 | 1009.9 |
| 20260508132515 | 47 | 266 | 9.6 | 0.0 | 0.00 | 0.00 | 0.00 | 64 | 1009.9 |
| 20260508132012 | 47 | 281 | 9.6 | 0.0 | 0.00 | 0.00 | 0.00 | 68 | 1009.9 |
| 20260508131511 | 47 | 257 | 10.4 | 0.0 | 0.00 | 0.00 | 0.00 | 71 | 1009.9 |
| 20260508131010 | 47 | 257 | 11.3 | 0.0 | 0.00 | 0.00 | 0.00 | 72 | 1010.0 |
| 20260508130509 | 46 | 248 | 10.4 | 0.0 | 0.00 | 0.00 | 0.00 | 73 | 1010.1 |
| 20260508130009 | 46 | 252 | 9.6 | 0.0 | 0.00 | 0.00 | 0.00 | 71 | 1010.1 |
| 20260508125508 | 46 | 250 | 8.7 | 0.0 | 0.00 | 0.00 | 0.00 | 72 | 1010.1 |
| 20260508125009 | 46 | 286 | 8.7 | 0.0 | 0.00 | 0.00 | 0.00 | 69 | 1010.1 |
| 20260508124510 | 46 | 271 | 8.7 | 0.0 | 0.00 | 0.00 | 0.00 | 71 | 1010.1 |
| 20260508124009 | 45 | 279 | 8.7 | 0.0 | 0.00 | 0.00 | 0.00 | 68 | 1010.3 |
| 20260508123505 | 45 | 284 | 7.8 | 0.0 | 0.00 | 0.00 | 0.00 | 73 | 1010.3 |
| 20260508123005 | 45 | 265 | 8.7 | 0.0 | 0.00 | 0.00 | 0.00 | 74 | 1010.2 |
| 20260508122503 | 45 | 261 | 9.6 | 0.0 | 0.00 | 0.00 | 0.00 | 76 | 1010.3 |
| 20260508122002 | 44 | 251 | 9.6 | 0.0 | 0.00 | 0.00 | 0.00 | 78 | 1010.2 |
| 20260508121501 | 43 | 234 | 8.7 | 0.0 | 0.00 | 0.00 | 0.00 | 78 | 1010.2 |
| 20260508121059 | 43 | 217 | 7.8 | 0.0 | 0.00 | 0.00 | 0.00 | 79 | 1010.1 |
| 20260508120600 | 42 | 265 | 7.8 | 0.0 | 0.00 | 0.00 | 0.00 | 79 | 1010.2 |
| 20260508120058 | 42 | 243 | 7.0 | 0.0 | 0.00 | 0.00 | 0.00 | 80 | 1010.3 |
| 20260508115557 | 42 | 249 | 7.0 | 0.0 | 0.00 | 0.00 | 0.00 | 80 | 1010.3 |
| 20260508115056 | 41 | 252 | 5.2 | 0.0 | 0.00 | 0.00 | 0.00 | 80 | 1010.3 |
| 20260508114555 | 41 | 229 | 4.3 | 0.0 | 0.00 | 0.00 | 0.00 | 80 | 1010.3 |
| 20260508114057 | 41 | 226 | 3.5 | 0.0 | 0.00 | 0.00 | 0.00 | 80 | 1010.2 |
| 20260508113553 | 41 | 223 | 2.6 | 0.0 | 0.00 | 0.00 | 0.00 | 80 | 1010.2 |
| 20260508113101 | 41 | 223 | 2.6 | 0.0 | 0.00 | 0.00 | 0.00 | 80 | 1010.2 |
| 20260508112552 | 40 | 225 | 4.3 | 0.0 | 0.00 | 0.00 | 0.00 | 80 | 1010.2 |
| 20260508112055 | 40 | 242 | 3.5 | 0.0 | 0.00 | 0.00 | 0.00 | 79 | 1010.2 |
| 20260508111552 | 40 | 222 | 1.7 | 0.0 | 0.00 | 0.00 | 0.00 | 79 | 1010.2 |
| 20260508111055 | 40 | 226 | 1.7 | 0.0 | 0.00 | 0.00 | 0.00 | 79 | 1010.1 |
| 20260508110554 | 40 | 229 | 1.7 | 0.0 | 0.00 | 0.00 | 0.00 | 79 | 1010.1 |
| 20260508110051 | 40 | 225 | 3.5 | 0.0 | 0.00 | 0.00 | 0.00 | 79 | 1010.1 |
| 20260508105550 | 40 | 227 | 2.6 | 0.0 | 0.00 | 0.00 | 0.00 | 79 | 1010.0 |
| 20260508105048 | 40 | 180 | 3.5 | 0.0 | 0.00 | 0.00 | 0.00 | 79 | 1009.9 |
| 20260508104549 | 40 | 225 | 3.5 | 0.0 | 0.00 | 0.00 | 0.00 | 80 | 1009.9 |
| 20260508104049 | 40 | 225 | 5.2 | 0.0 | 0.00 | 0.00 | 0.00 | 81 | 1009.8 |
| 20260508103548 | 40 | 228 | 8.7 | 0.0 | 0.00 | 0.00 | 0.00 | 83 | 1009.8 |
| 20260508103050 | 39 | 250 | 8.7 | 0.0 | 0.00 | 0.00 | 0.00 | 84 | 1009.8 |
| 20260508102547 | 39 | 260 | 7.8 | 0.0 | 0.00 | 0.00 | 0.00 | 84 | 1009.8 |
| 20260508102046 | 39 | 242 | 5.2 | 0.0 | 0.00 | 0.00 | 0.00 | 83 | 1009.7 |
| 20260508101546 | 39 | 240 | 5.2 | 0.0 | 0.00 | 0.00 | 0.00 | 83 | 1009.7 |
| 20260508101046 | 39 | 257 | 4.3 | 0.0 | 0.00 | 0.00 | 0.00 | 84 | 1009.6 |
| 20260508100549 | 39 | 294 | 2.6 | 0.0 | 0.00 | 0.00 | 0.00 | 82 | 1009.6 |
| 20260508100045 | 38 | 258 | 2.6 | 0.0 | 0.00 | 0.00 | 0.00 | 85 | 1009.5 |
| 20260508095545 | 38 | 308 | 1.7 | 0.0 | 0.00 | 0.00 | 0.00 | 85 | 1009.6 |
| 20260508095044 | 38 | 325 | 0.9 | 0.0 | 0.00 | 0.00 | 0.00 | 86 | 1009.6 |
| 20260508094606 | 38 | 339 | 0.9 | 0.0 | 0.00 | 0.00 | 0.00 | 85 | 1009.5 |
| 20260508094046 | 37 | 163 | 0.9 | 0.0 | 0.00 | 0.00 | 0.00 | 85 | 1009.4 |
| 20260508093542 | 37 | 161 | 1.7 | 0.0 | 0.00 | 0.00 | 0.00 | 86 | 1009.2 |
| 20260508093043 | 37 | 109 | 1.7 | 0.0 | 0.00 | 0.00 | 0.00 | 86 | 1009.2 |
| 20260508092542 | 37 | 82 | 1.7 | 0.0 | 0.00 | 0.00 | 0.00 | 85 | 1009.2 |
| 20260508092040 | 37 | 146 | 1.7 | 0.0 | 0.00 | 0.00 | 0.00 | 86 | 1009.0 |
| 20260508091542 | 37 | 133 | 0.9 | 0.0 | 0.00 | 0.00 | 0.00 | 86 | 1009.1 |
| 20260508091040 | 37 | 148 | 1.7 | 0.0 | 0.00 | 0.00 | 0.00 | 86 | 1009.0 |
| 20260508090539 | 37 | 150 | 1.7 | 0.0 | 0.00 | 0.00 | 0.00 | 86 | 1009.1 |
| 20260508090043 | 37 | 136 | 0.0 | 0.0 | 0.00 | 0.00 | 0.00 | 86 | 1008.9 |
| 20260508085539 | 37 | 144 | 0.9 | 0.0 | 0.00 | 0.00 | 0.00 | 85 | 1009.0 |
| 20260508085041 | 36 | 144 | 0.9 | 0.0 | 0.00 | 0.00 | 0.00 | 85 | 1008.9 |
| 20260508084538 | 37 | 143 | 0.0 | 0.0 | 0.00 | 0.00 | 0.00 | 85 | 1008.9 |
| 20260508084038 | 36 | 150 | 0.9 | 0.0 | 0.00 | 0.00 | 0.00 | 85 | 1008.9 |
| 20260508083542 | 37 | 150 | 2.6 | 0.0 | 0.00 | 0.00 | 0.00 | 85 | 1008.7 |
| 20260508083036 | 36 | 148 | 3.5 | 0.0 | 0.00 | 0.00 | 0.00 | 85 | 1008.6 |
| 20260508082537 | 36 | 118 | 2.6 | 0.0 | 0.00 | 0.00 | 0.00 | 85 | 1008.6 |
| 20260508082037 | 36 | 121 | 3.5 | 0.0 | 0.00 | 0.00 | 0.00 | 86 | 1008.7 |
| 20260508081558 | 36 | 128 | 2.6 | 0.0 | 0.00 | 0.00 | 0.00 | 86 | 1008.6 |
| 20260508081035 | 36 | 138 | 1.7 | 0.0 | 0.00 | 0.00 | 0.00 | 85 | 1008.7 |
| 20260508080535 | 36 | 149 | 3.5 | 0.0 | 0.00 | 0.00 | 0.00 | 85 | 1008.8 |
| 20260508080041 | 36 | 136 | 4.3 | 0.0 | 0.00 | 0.00 | 0.00 | 87 | 1008.7 |
| 20260508075536 | 36 | 130 | 4.3 | 0.0 | 0.00 | 0.00 | 0.00 | 87 | 1008.6 |
| 20260508075039 | 36 | 119 | 3.5 | 0.0 | 0.00 | 0.00 | 0.00 | 87 | 1008.7 |
| 20260508074535 | 36 | 135 | 2.6 | 0.0 | 0.00 | 0.00 | 0.00 | 86 | 1008.6 |
| 20260508074035 | 36 | 149 | 2.6 | 0.0 | 0.00 | 0.00 | 0.00 | 85 | 1008.6 |
| 20260508073535 | 36 | 148 | 1.7 | 0.0 | 0.00 | 0.00 | 0.00 | 85 | 1008.6 |
| 20260508073038 | 36 | 146 | 0.9 | 0.0 | 0.00 | 0.00 | 0.00 | 86 | 1008.6 |
| 20260508072534 | 35 | 146 | 2.6 | 0.0 | 0.00 | 0.00 | 0.00 | 86 | 1008.6 |
| 20260508072034 | 35 | 145 | 4.3 | 0.0 | 0.00 | 0.00 | 0.00 | 85 | 1008.6 |
| 20260508071541 | 35 | 136 | 3.5 | 0.0 | 0.00 | 0.00 | 0.00 | 86 | 1008.5 |
| 20260508071033 | 35 | 150 | 1.7 | 0.0 | 0.00 | 0.00 | 0.00 | 86 | 1008.5 |
| 20260508070533 | 35 | 150 | 1.7 | 0.0 | 0.00 | 0.00 | 0.00 | 86 | 1008.5 |
| 20260508070035 | 35 | 150 | 1.7 | 0.0 | 0.00 | 0.00 | 0.00 | 86 | 1008.5 |
| 20260508065534 | 35 | 140 | 2.6 | 0.0 | 0.00 | 0.00 | 0.00 | 86 | 1008.4 |
| 20260508065033 | 35 | 141 | 2.6 | 0.0 | 0.00 | 0.00 | 0.00 | 86 | 1008.4 |
| 20260508064533 | 35 | 138 | 2.6 | 0.0 | 0.00 | 0.00 | 0.00 | 86 | 1008.4 |
| 20260508064033 | 35 | 145 | 2.6 | 0.0 | 0.00 | 0.00 | 0.00 | 87 | 1008.5 |
| 20260508063534 | 35 | 360 | 2.6 | 0.0 | 0.00 | 0.00 | 0.00 | 87 | 1008.5 |
| 20260508063045 | 34 | 360 | 2.6 | 0.0 | 0.00 | 0.00 | 0.00 | 87 | 1008.6 |
| 20260508062533 | 34 | 360 | 2.6 | 0.0 | 0.00 | 0.00 | 0.00 | 87 | 1008.6 |
| 20260508062032 | 34 | 360 | 2.6 | 0.0 | 0.00 | 0.00 | 0.00 | 88 | 1008.6 |
| 20260508061532 | 34 | 360 | 3.5 | 0.0 | 0.00 | 0.00 | 0.00 | 88 | 1008.6 |
| 20260508061032 | 34 | 360 | 3.5 | 0.0 | 0.00 | 0.00 | 0.00 | 87 | 1008.6 |
| 20260508060531 | 34 | 360 | 3.5 | 0.0 | 0.00 | 0.00 | 0.00 | 86 | 1008.7 |
| 20260508060035 | 34 | 141 | 2.6 | 0.0 | 0.00 | 0.00 | 0.00 | 86 | 1008.7 |
| 20260508055531 | 34 | 143 | 3.5 | 0.0 | 0.00 | 0.00 | 0.00 | 86 | 1008.8 |
| 20260508055035 | 34 | 360 | 4.3 | 0.0 | 0.00 | 0.00 | 0.00 | 85 | 1008.7 |
| 20260508054531 | 34 | 141 | 4.3 | 0.0 | 0.00 | 0.00 | 0.00 | 85 | 1008.8 |
| 20260508054028 | 34 | 360 | 3.5 | 0.0 | 0.00 | 0.00 | 0.00 | 84 | 1008.8 |
| 20260508053527 | 34 | 360 | 2.6 | 0.0 | 0.00 | 0.00 | 0.00 | 83 | 1008.8 |
| 20260508053027 | 35 | 360 | 2.6 | 0.0 | 0.00 | 0.00 | 0.00 | 83 | 1008.8 |
| 20260508052529 | 35 | 360 | 2.6 | 0.0 | 0.00 | 0.00 | 0.00 | 83 | 1008.8 |
| 20260508052024 | 35 | 360 | 2.6 | 0.0 | 0.00 | 0.00 | 0.00 | 83 | 1008.7 |
| 20260508051524 | 35 | 360 | 2.6 | 0.0 | 0.00 | 0.00 | 0.00 | 83 | 1008.8 |
| 20260508051023 | 35 | 360 | 2.6 | 0.0 | 0.00 | 0.00 | 0.00 | 82 | 1008.7 |
| 20260508050522 | 36 | 360 | 3.5 | 0.0 | 0.00 | 0.00 | 0.00 | 81 | 1008.7 |
| 20260508050022 | 36 | 146 | 4.3 | 0.0 | 0.00 | 0.00 | 0.00 | 80 | 1008.7 |
| 20260508045522 | 36 | 144 | 4.3 | 0.0 | 0.00 | 0.00 | 0.00 | 81 | 1008.6 |
| 20260508045021 | 36 | 133 | 4.3 | 0.0 | 0.00 | 0.00 | 0.00 | 80 | 1008.6 |
| 20260508044526 | 37 | 144 | 4.3 | 0.0 | 0.00 | 0.00 | 0.00 | 79 | 1008.8 |
| 20260508044019 | 37 | 138 | 3.5 | 0.0 | 0.00 | 0.00 | 0.00 | 78 | 1008.7 |
| 20260508043516 | 37 | 146 | 3.5 | 0.0 | 0.00 | 0.00 | 0.00 | 77 | 1008.7 |
| 20260508043015 | 38 | 144 | 3.5 | 0.0 | 0.00 | 0.00 | 0.00 | 76 | 1008.6 |
| 20260508042518 | 38 | 144 | 2.6 | 0.0 | 0.00 | 0.00 | 0.00 | 76 | 1008.4 |
| 20260508042012 | 39 | 146 | 1.7 | 0.0 | 0.00 | 0.00 | 0.00 | 75 | 1008.4 |
| 20260508041512 | 39 | 146 | 3.5 | 0.0 | 0.00 | 0.00 | 0.00 | 74 | 1008.4 |